Regional Weather Roundup
Issued by NWS Cleveland, OH

Home | Current Version | Previous Version | Graphics & Text | Print | Product List | Glossary On
Versions: 1 2 3 4 5 6 7 8 9 10 11 12 13 14 15 16 17 18 19 20 21 22 23 24 25 26 27 28 29 30 31 32 33 34 35 36 37 38 39 40 41 42 43 44 45 46 47 48 49 50
000
ASUS41 KCLE 061612
RWRCLE
OHIO REGIONAL WEATHER ROUNDUP
NATIONAL WEATHER SERVICE WILMINGTON, OH
1100 AM EST SAT FEB 06 2016

NOTE: "FAIR" INDICATES FEW OR NO CLOUDS BELOW 12,000 FEET WITH NO
SIGNIFICANT WEATHER AND/OR OBSTRUCTIONS TO VISIBILITY.

OHZ001>008-015>018-024>027-034-035-043-044-061700-
   NORTHWEST OHIO

CITY           SKY/WX    TMP DP  RH WIND       PRES   REMARKS
DEFIANCE       FAIR      30  23  75 SW9       30.31F WCI  22
FINDLAY        CLOUDY    30  25  81 SW10      30.31F HAZE    WCI  21
TOLEDO EXPRESS FAIR      33  22  63 W13       30.30S WCI  24
TOLEDO EXEC    FAIR      32  24  72 SW12      30.32S HAZE    WCI  23
LIMA           CLOUDY    28  25  88 S6        30.31F FOG     WCI  22
$$

OHZ009>014-019>023-028>033-038-089-061700-
   NORTHEAST OHIO

CITY           SKY/WX    TMP DP  RH WIND       PRES   REMARKS
CLE-HOPKINS    FAIR      33  19  56 W8        30.33F WCI  26
CLE-LAKEFRONT  FAIR      33  24  69 W7        30.31F WCI  27
CUY CO. ARPT   PTSUNNY   34  23  64 NW14      30.30S WCI  24
LORAIN-ELYRIA  FAIR      32  21  64 W8        30.31F WCI  25
ASHTABULA      PTSUNNY   31  22  69 SW14      30.29F WCI  21
AKRON-CANTON   FAIR      32  23  69 VRB6      30.30S WCI  26
WOOSTER        FAIR      31  23  72 W7        30.31S WCI  24
MANSFIELD      FAIR      32  22  66 VRB6      30.30S WCI  26
YOUNGSTOWN     FAIR      33  22  63 W12       30.28F WCI  24
$$

OHZ042-051>053-060>062-070>072-077>081-061700-
  SOUTHWEST OHIO

CITY           SKY/WX    TMP DP  RH WIND       PRES   REMARKS
CINC-COVINGTON FAIR      36  25  64 SW6       30.34S
CINC-LUNKEN    FAIR      35  28  75 CALM      30.38S
HAMILTON       FAIR      35  26  69 VRB3      30.37S
DAYTON         FAIR      33  24  69 SW8       30.34R WCI  26
WRIGHT-PAT AFB FAIR      33  23  66 SW5       30.34R WCI  28
DAYTON GENERAL FAIR      33  25  72 S6        30.33S WCI  28
WILMINGTON     FAIR      35  22  58 SW9       30.33S WCI  28
$$

OHZ036-037-039>041-045>050-054>059-063>069-073>076-082>088-061700-
  CENTRAL AND SOUTHEAST OHIO

CITY           SKY/WX    TMP DP  RH WIND       PRES   REMARKS
COLUMBUS       FAIR      33  21  61 SW6       30.33S WCI  28
OSU AIRPORT    FAIR      34  21  59 SW9       30.33R WCI  27
BOLTON FIELD   SUNNY     34  21  60 W7        30.34R WCI  28
RICKENBACK AFB FAIR      33  24  70 W5        30.34S WCI  29
NEWARK         FAIR      36  21  54 W7        30.32S
MARION         CLOUDY    31  23  72 W7        30.33S HAZE    WCI  24
LANCASTER      FAIR      36  23  59 SW9       30.33F
ZANESVILLE     FAIR      38  21  50 W8        30.32F
NEW PHILLY     FAIR      35  21  56 SW7       30.32S WCI  29
$$



USA.gov is the U.S. government's official web portal to all federal, state and local government web resources and services.